Location: Unspecified
(0.0000°N, 0.0000°E)
Time: 12:32:46
(UTC+00:00)

STARLINK-36491 - Pass Details

Date: 19 February 2026
Orbit: 482 x 484 km, 43.0° (Epoch: 8 March)

Event Time Altitude Azimuth Distance (km) Brightness Sun altitude
Rises 19:31:24 0° 257° (WSW) 2,531 ? -19.0°
Reaches altitude 10° 19:34:30 10° 285° (WNW) 1,651 ? -19.8°
Maximum altitude 19:36:25 14° 316° (NW) 1,447 ? -20.3°
Drops below altitude 10° 19:38:21 10° 347° (NNW) 1,651 ? -20.7°
Enters shadow 19:38:57 - 354° (N) 1,785 ? -20.9°
